User: anonymous   Login
Location: Haliburton Scout Reserve
(45.0900°N, 78.3200°W)
Time: 19:56:23
(UTC-05:00)
Language:

BlueWalker 3 - Orbit

View from above orbital plane
View from above orbital plane
View from above satellite
View from above satellite

Ground track
Ground track

The orbit data is extracted from the following two-line orbital elements,

1 53807U 22111AL  23037.18954597  .00004224  00000-0  21223-3 0  9998
2 53807  53.2061 311.9280 0013257  20.0652 340.0863 15.19320112 22529
Epoch (UTC): 06 February 2023 04:32:56
Eccentricity: 0.0013257
inclination: 53.2061°
perigee height: 499 km
apogee height: 517 km
right ascension of ascending node: 311.9280°
argument of perigee: 20.0652°
revolutions per day: 15.19320112
mean anomaly at epoch: 340.0863°
orbit number at epoch: 2252

The dashed part of the orbit path shows where the satellite is in the earth's shadow,  

DLR